When you browse on this site, cookies collect data to enhance your experience and personalize the content and advertising you see.
Visit our Privacy Policy to learn more. By continuing to use the site, you agree to this use of cookies and data.
  • In Austria
  • List of Countries
  • For 7 days
  • Water Temperature
  • Weather Map
  • News
  • Weather Widgets
  • user-avatar
    Login

    Hourly Weather Mixquiahuala

    Today, 25 August, Sunday

    Time Temperature Precipitation Wind Pressure Humidity
    00:00 +17°C° 0.1 mm 0 mps 602 mmHg 87%
    01:00 +18°C° 0.1 mm 1 mps 602 mmHg 87%
    02:00 +18°C° 0.1 mm 1 mps 601 mmHg 87%
    03:00 +16°C° 0 mm 1 mps 601 mmHg 86%
    04:00 +16°C° 0 mm 1 mps 601 mmHg 86%
    05:00 +15°C° 0 mm 1 mps 601 mmHg 85%
    06:00 +18°C° 0 mm 1 mps 602 mmHg 78%
    07:00 +20°C° 0 mm 1 mps 603 mmHg 72%
    08:00 +22°C° 0 mm 1 mps 603 mmHg 66%
    09:00 +23°C° 0 mm 1 mps 604 mmHg 60%
    10:00 +25°C° 0 mm 1 mps 604 mmHg 55%
    11:00 +26°C° 0 mm 1 mps 604 mmHg 50%
    12:00 +27°C° 0 mm 2 mps 604 mmHg 48%
    13:00 +27°C° 0 mm 2 mps 603 mmHg 47%
    14:00 +28°C° 0 mm 3 mps 603 mmHg 45%
    15:00 +27°C° 0.1 mm 3 mps 603 mmHg 50%
    16:00 +26°C° 0.1 mm 3 mps 602 mmHg 56%
    17:00 +25°C° 0.1 mm 3 mps 602 mmHg 61%
    18:00 +24°C° 0.4 mm 2 mps 602 mmHg 68%
    19:00 +22°C° 0.4 mm 1 mps 601 mmHg 75%
    20:00 +20°C° 0.4 mm 1 mps 601 mmHg 82%
    21:00 +19°C° 0.3 mm 1 mps 601 mmHg 82%
    22:00 +19°C° 0.3 mm 1 mps 601 mmHg 83%
    23:00 +18°C° 0.3 mm 1 mps 601 mmHg 84%

    Tomorrow, 26 August, Monday

    Time Temperature Precipitation Wind Pressure Humidity
    00:00 +18°C° 0.2 mm 1 mps 601 mmHg 85%
    01:00 +18°C° 0.2 mm 1 mps 600 mmHg 85%
    02:00 +18°C° 0.2 mm 1 mps 600 mmHg 86%
    03:00 +16°C° 0.2 mm 1 mps 600 mmHg 87%
    04:00 +16°C° 0.2 mm 1 mps 599 mmHg 88%
    05:00 +15°C° 0.2 mm 0 mps 599 mmHg 89%
    06:00 +16°C° 0 mm 0 mps 600 mmHg 84%
    07:00 +19°C° 0 mm 1 mps 601 mmHg 79%
    08:00 +21°C° 0 mm 1 mps 601 mmHg 74%
    09:00 +22°C° 0.2 mm 1 mps 602 mmHg 69%
    10:00 +23°C° 0.2 mm 1 mps 602 mmHg 64%
    11:00 +24°C° 0.2 mm 1 mps 602 mmHg 59%
    12:00 +25°C° 1.3 mm 1 mps 602 mmHg 58%
    13:00 +25°C° 1.3 mm 2 mps 601 mmHg 57%
    14:00 +25°C° 1.3 mm 2 mps 601 mmHg 56%
    15:00 +25°C° 0.8 mm 2 mps 601 mmHg 60%
    16:00 +24°C° 0.8 mm 2 mps 600 mmHg 64%
    17:00 +23°C° 0.8 mm 2 mps 600 mmHg 69%
    18:00 +21°C° 0.9 mm 2 mps 600 mmHg 73%
    19:00 +21°C° 0.9 mm 1 mps 601 mmHg 77%
    20:00 +20°C° 0.9 mm 1 mps 601 mmHg 81%
    21:00 +19°C° 0.5 mm 1 mps 601 mmHg 82%
    22:00 +19°C° 0.5 mm 1 mps 601 mmHg 84%
    23:00 +18°C° 0.5 mm 1 mps 601 mmHg 85%

    Day after tomorrow, 27 August, Tuesday

    Time Temperature Precipitation Wind Pressure Humidity
    00:00 +18°C° 0.1 mm 1 mps 600 mmHg 87%
    01:00 +16°C° 0.1 mm 1 mps 600 mmHg 89%
    02:00 +16°C° 0.1 mm 1 mps 599 mmHg 91%
    03:00 +14°C° 0 mm 0 mps 599 mmHg 92%
    04:00 +14°C° 0 mm 0 mps 599 mmHg 92%
    05:00 +14°C° 0 mm 0 mps 599 mmHg 93%
    06:00 +15°C° 0 mm 0 mps 600 mmHg 87%
    07:00 +17°C° 0 mm 0 mps 601 mmHg 82%
    08:00 +18°C° 0 mm 0 mps 602 mmHg 77%
    09:00 +22°C° 0 mm 1 mps 602 mmHg 70%
    10:00 +23°C° 0 mm 1 mps 602 mmHg 63%
    11:00 +25°C° 0 mm 2 mps 603 mmHg 57%
    12:00 +25°C° 0.3 mm 3 mps 603 mmHg 54%
    13:00 +26°C° 0.3 mm 3 mps 602 mmHg 52%
    14:00 +26°C° 0.3 mm 4 mps 602 mmHg 50%
    15:00 +25°C° 1.1 mm 4 mps 602 mmHg 58%
    16:00 +22°C° 1.1 mm 4 mps 601 mmHg 66%
    17:00 +21°C° 1.1 mm 4 mps 600 mmHg 75%
    18:00 +20°C° 0.9 mm 3 mps 601 mmHg 78%
    19:00 +19°C° 0.9 mm 2 mps 601 mmHg 82%
    20:00 +19°C° 0.9 mm 1 mps 602 mmHg 86%
    21:00 +19°C° 0.4 mm 1 mps 602 mmHg 86%
    22:00 +19°C° 0.4 mm 1 mps 602 mmHg 86%
    23:00 +16°C° 0.4 mm 0 mps 602 mmHg 86%

    28 August, Wednesday

    Time Temperature Precipitation Wind Pressure Humidity
    00:00 +16°C° 0.3 mm 0 mps 602 mmHg 86%
    01:00 +18°C° 0.3 mm 1 mps 602 mmHg 85%
    02:00 +18°C° 0.3 mm 1 mps 602 mmHg 85%
    03:00 +15°C° 0 mm 0 mps 602 mmHg 86%
    04:00 +15°C° 0 mm 0 mps 601 mmHg 87%
    05:00 +14°C° 0 mm 0 mps 601 mmHg 88%
    06:00 +16°C° 0 mm 0 mps 602 mmHg 82%
    07:00 +17°C° 0 mm 0 mps 603 mmHg 76%
    08:00 +19°C° 0 mm 0 mps 604 mmHg 70%
    09:00 +22°C° 0 mm 1 mps 604 mmHg 65%
    10:00 +24°C° 0 mm 2 mps 605 mmHg 60%
    11:00 +25°C° 0 mm 2 mps 605 mmHg 54%
    12:00 +26°C° 0 mm 4 mps 604 mmHg 53%
    13:00 +26°C° 0 mm 5 mps 604 mmHg 53%
    14:00 +26°C° 0 mm 6 mps 604 mmHg 52%
    15:00 +24°C° 0.3 mm 6 mps 603 mmHg 58%
    16:00 +22°C° 0.3 mm 6 mps 603 mmHg 64%
    17:00 +21°C° 0.3 mm 6 mps 602 mmHg 70%
    18:00 +19°C° 0 mm 5 mps 602 mmHg 77%
    19:00 +18°C° 0 mm 3 mps 602 mmHg 85%
    20:00 +16°C° 0 mm 2 mps 602 mmHg 92%
    21:00 +16°C° 0 mm 1 mps 602 mmHg 93%
    22:00 +16°C° 0 mm 1 mps 602 mmHg 95%
    23:00 +15°C° 0 mm 1 mps 602 mmHg 96%

    29 August, Thursday

    Time Temperature Precipitation Wind Pressure Humidity
    00:00 +15°C° 0 mm 1 mps 602 mmHg 95%
    01:00 +14°C° 0 mm 0 mps 602 mmHg 95%
    02:00 +14°C° 0 mm 0 mps 601 mmHg 94%
    03:00 +14°C° 0 mm 0 mps 601 mmHg 94%
    04:00 +13°C° 0 mm 0 mps 602 mmHg 93%
    05:00 +13°C° 0 mm 0 mps 602 mmHg 92%
    06:00 +14°C° 0 mm 0 mps 602 mmHg 86%
    07:00 +16°C° 0 mm 0 mps 603 mmHg 79%
    08:00 +17°C° 0 mm 0 mps 604 mmHg 73%
    09:00 +21°C° 0 mm 1 mps 604 mmHg 63%
    10:00 +22°C° 0 mm 1 mps 604 mmHg 53%
    11:00 +24°C° 0 mm 2 mps 605 mmHg 42%
    12:00 +25°C° 0 mm 3 mps 604 mmHg 41%
    13:00 +26°C° 0 mm 4 mps 604 mmHg 40%
    14:00 +27°C° 0 mm 5 mps 604 mmHg 39%
    15:00 +25°C° 0.1 mm 5 mps 603 mmHg 48%
    16:00 +23°C° 0.1 mm 5 mps 603 mmHg 58%
    17:00 +21°C° 0.1 mm 6 mps 602 mmHg 68%
    18:00 +20°C° 0.2 mm 4 mps 602 mmHg 76%
    19:00 +18°C° 0.2 mm 3 mps 602 mmHg 85%
    20:00 +16°C° 0.2 mm 2 mps 602 mmHg 93%
    21:00 +16°C° 0 mm 2 mps 602 mmHg 94%
    22:00 +15°C° 0 mm 1 mps 602 mmHg 95%
    23:00 +15°C° 0 mm 1 mps 602 mmHg 96%

    30 August, Friday

    Time Temperature Precipitation Wind Pressure Humidity
    00:00 +13°C° 0 mm 0 mps 602 mmHg 96%
    01:00 +13°C° 0 mm 0 mps 601 mmHg 96%
    02:00 +13°C° 0 mm 0 mps 601 mmHg 96%
    03:00 +12°C° 0 mm 0 mps 601 mmHg 95%
    04:00 +12°C° 0 mm 0 mps 601 mmHg 95%
    05:00 +12°C° 0 mm 0 mps 601 mmHg 95%
    06:00 +13°C° 0 mm 0 mps 601 mmHg 87%
    07:00 +15°C° 0 mm 0 mps 602 mmHg 79%
    08:00 +17°C° 0 mm 0 mps 603 mmHg 70%
    09:00 +21°C° 0 mm 1 mps 603 mmHg 61%
    10:00 +22°C° 0 mm 1 mps 604 mmHg 51%
    11:00 +24°C° 0 mm 2 mps 604 mmHg 42%
    12:00 +25°C° 0 mm 3 mps 604 mmHg 41%
    13:00 +26°C° 0 mm 4 mps 603 mmHg 40%
    14:00 +26°C° 0 mm 5 mps 603 mmHg 39%
    15:00 +25°C° 0.1 mm 5 mps 603 mmHg 48%
    16:00 +23°C° 0.1 mm 5 mps 602 mmHg 56%
    17:00 +21°C° 0.1 mm 5 mps 602 mmHg 65%
    18:00 +20°C° 0.2 mm 4 mps 602 mmHg 73%
    19:00 +18°C° 0.2 mm 3 mps 601 mmHg 82%
    20:00 +16°C° 0.2 mm 2 mps 601 mmHg 90%
    21:00 +16°C° 0 mm 1 mps 601 mmHg 92%
    22:00 +15°C° 0 mm 1 mps 601 mmHg 93%
    23:00 +13°C° 0 mm 0 mps 601 mmHg 94%
    Show more